This is the latest recevied weather packets stored in our database for station/object VK4TOM-13. If no packets are shown the sender has not sent any weather packets the latest 10 day(s).
| Time | Temp. | Humidity | Pressure | Rain* | Wind** | Luminosity | Snow |
|---|---|---|---|---|---|---|---|
| 1778170318 | 17.78° C | 70% | 1016.9 hPa | 0 mm | - | - | - |
| 1778169717 | 17.78° C | 70% | 1016.7 hPa | 0 mm | - | - | - |
| 1778169116 | 18.33° C | 70% | 1016.8 hPa | 0 mm | - | - | - |
| 1778168515 | 18.89° C | 70% | 1016.6 hPa | 0 mm | - | - | - |
| 1778167914 | 19.44° C | 70% | 1016.8 hPa | 0 mm | - | - | - |
| 1778167313 | 19.44° C | 70% | 1016.8 hPa | 0 mm | - | - | - |
| 1778166712 | 20° C | 70% | 1016.8 hPa | 0 mm | - | - | - |
| 1778166111 | 20° C | 70% | 1016.8 hPa | 0 mm | - | - | - |
| 1778165510 | 20° C | 70% | 1016.7 hPa | 0 mm | - | - | - |
| 1778164909 | 20° C | 70% | 1016.8 hPa | 0 mm | - | - | - |
| 1778164307 | 20° C | 70% | 1016.9 hPa | 0 mm | - | - | - |
| 1778163706 | 20° C | 70% | 1017 hPa | 0 mm | - | - | - |
| 1778163105 | 20.56° C | 70% | 1017 hPa | 0 mm | - | - | - |
| 1778162504 | 20.56° C | 70% | 1017.2 hPa | 0 mm | - | - | - |
| 1778161903 | 20.56° C | 70% | 1017.1 hPa | 0 mm | - | - | - |
| 1778161302 | 20.56° C | 70% | 1017 hPa | 0 mm | - | - | - |
| 1778160701 | 20.56° C | 70% | 1017.3 hPa | 0 mm | - | - | - |
| 1778160100 | 20° C | 70% | 1017.4 hPa | 0 mm | - | - | - |
| 1778159499 | 19.44° C | 70% | 1017.3 hPa | 0 mm | - | - | - |
| 1778158898 | 19.44° C | 70% | 1017.5 hPa | 0 mm | - | - | - |
| 1778158297 | 18.89° C | 70% | 1017.4 hPa | 0 mm | - | - | - |
| 1778157696 | 18.89° C | 70% | 1017.4 hPa | 0 mm | - | - | - |
| 1778157095 | 19.44° C | 70% | 1017.3 hPa | 0 mm | - | - | - |
| 1778156494 | 19.44° C | 70% | 1017.3 hPa | 0 mm | - | - | - |
| 1778155893 | 19.44° C | 70% | 1017.5 hPa | 0 mm | - | - | - |
* Rain since midnight (hover to see other rain measurements)
** Current wind speed in m/s (hover to see current wind gust speed)